RH
60 58 47 32 29 29 25 19 17 16 13 11 12 13 13 16 28 32 48 58 88 67 50 79 88 93 99 92 71 84 76 39 28 31 30 33 30 35 31 27 32 32 52 61
56 48 44 35 29 21 20 21 19 15 13 10 11 13 12 14 29 30 42 48 89 87 76 66 97 92 100 91 85 78 79 40 34 36 38 41 47 45 34 30 33 39 53 55
46 39 35 33 30 27 23 19 18 17 14 12 10 12 12 12 23 35 34 50 58 89 84 58 83 94 95 78 87 77 86 68 61 46 48 55 64 51 36 31 37 47 49 36
41 34 31 27 26 26 23 20 18 18 17 15 10 10 12 12 19 32 40 50 59 67 83 72 63 79 75 83 88 82 93 84 64 54 63 67 69 52 35 35 42 59 59 47
48 52 43 27 24 24 24 24 18 18 18 17 12 10 10 12 13 19 32 44 62 51 94 54 65 58 64 68 81 78 94 92 76 68 57 77 77 52 36 40 57 65 63 55
68 57 59 83 36 28 29 27 20 17 18 24 17 10 12 12 12 17 24 40 50 46 77 83 70 59 73 76 80 79 86 89 91 76 71 83 85 46 39 51 67 63 63 64
39 33 42 60 53 42 34 30 23 26 27 30 17 13 13 12 13 15 22 29 41 40 67 100 97 82 73 77 72 78 82 97 90 83 84 86 63 44 46 65 64 59 67 69
54 75 66 63 46 41 29 27 24 37 32 22 16 15 13 12 12 12 18 30 42 42 64 91 72 93 76 68 73 71 67 81 89 82 86 74 47 49 50 60 54 61 65 68
82 52 59 65 56 41 29 27 22 30 24 19 15 18 14 13 12 13 17 24 30 50 58 91 84 99 65 70 71 69 66 82 76 71 71 49 52 48 49 50 50 46 47 58
95 88 51 59 70 54 31 40 27 26 44 27 15 14 17 14 14 16 17 22 38 54 54 99 82 89 76 72 71 65 70 78 65 61 54 50 51 46 48 50 38 37 36 36
96 99 77 73 61 53 48 51 48 26 30 24 30 18 16 16 18 18 17 25 37 44 50 71 90 74 81 80 79 71 86 85 59 49 48 50 50 49 52 46 38 38 38 42
98 92 84 72 56 39 48 50 43 47 33 20 26 54 51 26 17 21 19 22 36 53 62 56 48 76 58 78 80 87 100 83 73 57 49 49 54 55 52 46 43 40 43 46
83 98 89 57 47 35 31 47 48 41 31 32 54 69 70 46 35 30 30 26 34 44 48 49 36 42 35 50 73 85 81 90 84 64 60 53 53 55 57 51 48 46 47 46
84 100 98 94 97 90 45 47 36 28 29 35 50 84 96 70 44 38 37 33 32 45 46 48 40 31 25 55 65 70 63 80 92 76 68 67 60 55 56 56 52 48 47 48
96 100 98 94 92 98 97 88 59 26 65 55 99 98 100 99 68 50 50 47 34 44 45 41 31 24 37 50 61 70 78 82 70 70 65 66 74 72 61 54 55 51 48 50
98 97 100 86 97 96 97 98 78 84 98 97 98 95 100 75 89 63 53 70 77 70 63 38 23 27 42 53 54 56 64 75 70 56 58 60 68 75 74 65 55 55 53 53
98 96 100 98 94 90 66 97 98 97 98 96 96 99 98 96 96 89 74 64 87 97 100 98 68 33 42 49 57 57 61 69 67 62 54 51 59 60 66 76 67 52 53 53
97 100 97 95 96 86 96 96 97 97 97 97 98 98 98 100 100 100 99 96 98 93 100 97 99 62 60 58 57 62 67 68 64 56 49 54 60 62 64 63 75 66 56 54
96 98 96 96 92 96 82 93 96 98 98 99 99 99 98 98 100 99 100 94 73 72 74 80 95 95 81 65 64 64 71 65 59 59 60 63 67 66 67 70 69 73 64 60
94 96 93 86 74 91 98 97 98 100 99 98 100 100 99 98 82 92 99 88 76 66 70 89 98 87 70 59 67 72 69 66 57 54 58 63 48 68 66 73 75 73 70 66
95 85 93 85 95 98 96 94 77 86 98 98 98 100 97 89 76 76 76 83 79 56 52 63 72 70 71 74 78 77 64 67 63 64 69 69 60 60 61 65 74 74 74 73
95 95 96 90 79 88 95 74 85 99 99 100 98 100 91 84 78 69 65 63 67 76 65 59 59 61 58 60 65 62 64 64 66 66 68 69 58 49 56 64 70 72 74 74
94 97 95 93 97 97 97 97 98 98 97 97 98 99 99 92 78 73 64 62 64 68 77 74 66 99 88 95 94 85 70 69 70 64 66 64 48 51 63 66 71 72 61 40
96 88 94 95 96 96 96 96 96 97 97 98 97 97 99 96 94 94 94 71 65 63 70 69 69 87 100 93 98 100 100 93 91 89 80 64 60 62 65 60 52 50 49 47
84 88 93 95 94 96 95 95 96 96 97 97 97 98 97 99 94 90 74 72 81 54 63 68 65 76 88 94 79 74 72 85 100 100 100 96 72 69 65 61 68 71 72 70
88 91 91 96 97 96 96 95 96 96 96 95 96 96 99 99 98 90 85 91 67 62 61 71 64 58 48 51 56 78 72 69 72 98 99 88 88 98 85 87 87 75 82 77
Wind_Speed
23 25 31 27 28 31 33 32 39 35 34 40 44 44 40 39 44 45 49 47 30 32 26 38 42 43 40 34 32 28 28 29 30 27 24 20 21 16 17 13 13 13 12 12
26 41 32 26 26 29 31 34 38 38 36 38 41 43 44 41 43 44 54 46 37 33 37 33 38 44 40 35 32 27 31 31 28 25 23 21 22 19 17 14 14 12 12 13
33 35 27 31 28 29 31 34 34 36 33 38 40 43 39 42 40 47 40 48 48 38 54 39 36 38 38 36 30 29 32 32 30 27 26 25 23 20 17 16 14 13 12 12
37 30 31 32 36 28 31 30 33 34 40 36 40 24 40 45 44 43 40 42 41 42 42 35 32 39 40 34 33 31 32 30 29 28 27 26 20 19 17 17 14 14 13 11
43 34 32 34 36 31 34 23 29 34 40 41 38 33 37 39 42 44 47 44 36 39 55 45 39 40 37 35 35 34 33 35 32 30 31 25 24 23 18 17 17 15 14 12
34 28 31 32 33 30 29 27 27 33 40 28 38 34 30 38 48 45 46 45 53 53 55 52 40 38 37 35 34 35 34 32 39 35 31 27 27 21 20 18 17 16 14 14
29 33 37 30 28 26 24 26 17 21 22 15 34 35 28 43 43 48 45 50 53 56 51 50 49 44 41 38 34 34 33 46 42 38 30 29 27 21 19 20 18 16 15 16
24 22 24 30 30 29 28 32 21 17 16 17 35 29 33 32 32 47 49 53 51 43 54 39 46 39 41 35 38 33 27 33 38 34 32 32 24 23 23 21 18 15 15 16
13 19 17 18 30 31 29 34 38 26 30 24 26 27 33 34 35 44 47 48 45 49 49 50 53 41 43 35 39 33 38 36 36 35 33 29 25 26 23 20 17 14 14 14
11 13 18 21 20 25 28 31 35 34 14 11 22 33 28 31 35 40 44 43 44 51 42 42 61 41 39 38 40 37 36 32 32 36 32 28 28 26 24 20 18 15 14 13
16 8 14 21 17 24 24 30 23 31 31 11 13 18 19 29 25 40 34 39 43 43 43 38 29 28 39 43 42 42 37 40 35 36 34 29 28 27 24 22 19 18 16 14
13 9 13 13 14 16 20 29 28 17 29 22 21 5 6 16 22 32 33 40 40 39 40 37 44 37 34 41 39 41 35 40 38 39 34 30 29 27 25 24 21 19 17 15
19 6 10 8 8 6 19 22 26 27 20 19 4 3 6 12 18 22 24 33 39 43 43 40 35 38 38 37 33 39 40 44 41 40 34 31 29 27 26 25 24 21 19 17
18 9 10 11 15 14 7 19 26 31 26 19 14 11 14 11 14 19 18 26 37 42 41 39 38 38 37 35 40 44 35 37 40 38 34 32 29 27 27 26 25 23 21 19
20 8 11 17 12 5 16 6 10 33 14 10 13 17 12 6 17 26 24 30 35 37 39 41 35 37 39 38 40 41 40 43 41 37 35 33 30 29 28 28 27 26 24 21
12 6 15 12 13 28 40 35 15 16 25 21 22 26 22 5 4 23 32 24 30 33 30 33 31 35 36 35 39 40 42 44 41 40 37 35 32 31 32 31 28 27 25 23
9 10 9 10 21 8 23 26 28 20 20 25 31 23 16 14 2 4 18 30 19 28 27 32 30 32 34 33 37 38 39 41 41 39 36 34 32 33 34 33 31 29 27 25
8 4 6 3 1 9 4 14 13 30 23 17 16 18 14 8 17 4 7 21 29 29 17 36 35 30 33 36 35 36 40 40 38 37 37 32 31 32 33 32 34 32 29 27
18 13 10 7 25 10 24 24 14 18 31 16 10 7 6 5 7 1 8 11 16 18 16 21 18 26 25 29 33 33 38 39 38 38 35 30 29 29 37 35 36 34 32 29
37 25 15 21 10 9 35 6 11 9 29 20 16 8 8 3 2 4 7 14 16 21 19 18 19 17 18 22 26 29 33 39 40 37 37 35 33 36 32 33 35 35 32 30
23 33 36 29 11 14 30 11 15 12 16 19 14 8 6 2 9 9 9 5 9 19 22 26 24 25 22 17 25 27 27 36 36 37 37 38 34 32 33 30 32 32 32 31
34 17 19 20 11 11 32 29 26 14 12 14 12 11 12 8 6 9 14 15 11 8 17 23 25 25 21 24 29 32 34 35 35 37 36 35 34 31 28 29 27 29 29 28
34 27 36 26 21 18 24 24 17 16 16 15 11 11 10 9 3 7 8 14 15 15 14 10 17 16 17 6 15 16 24 26 29 36 34 36 33 30 30 29 28 28 27 26
29 31 24 13 21 26 25 24 22 21 20 19 17 13 8 9 9 7 4 8 3 7 15 14 13 15 13 19 15 19 20 25 32 32 31 34 36 32 30 27 27 25 24 23
28 23 29 30 24 27 26 25 23 22 21 20 19 18 15 12 11 10 5 2 4 2 8 15 14 10 7 2 3 4 2 6 12 21 30 32 33 29 27 26 26 25 24 23
29 31 32 26 22 23 25 25 26 26 26 23 19 17 15 12 12 11 10 10 5 1 7 12 10 10 9 7 8 6 12 11 9 11 27 34 37 30 32 35 33 28 28 29
Wind_Direction
236 241 234 233 234 242 248 251 246 244 235 228 230 231 226 225 223 224 227 207 200 232 218 201 205 208 206 214 216 208 215 207 207 207 215 202 214 206 208 203 204 216 213 222
243 237 241 243 242 242 244 247 250 249 244 235 229 223 224 222 220 225 224 220 209 214 227 216 206 210 207 211 214 217 215 207 208 207 211 207 210 207 208 205 214 219 219 227
241 246 243 239 240 241 244 245 244 242 242 236 230 226 217 221 216 223 227 224 232 204 217 211 212 208 210 213 210 219 213 212 211 207 208 210 208 208 209 211 214 218 219 221
244 247 241 239 234 235 243 243 243 240 241 252 225 221 214 219 213 210 213 222 223 204 229 224 223 210 209 211 210 216 213 210 206 208 210 214 213 213 209 212 213 212 218 215
251 249 248 239 239 236 247 247 244 236 240 246 245 219 215 212 214 211 215 216 217 235 213 221 220 211 205 207 211 216 212 212 203 207 213 208 213 213 208 211 208 213 219 220
263 251 254 243 247 238 245 246 240 237 237 248 251 208 219 214 213 210 211 217 219 223 212 220 210 201 204 207 214 214 209 208 199 207 207 208 217 212 212 204 207 218 223 222
255 253 257 247 245 236 238 231 226 236 229 241 243 223 204 227 217 209 212 217 223 222 220 200 208 210 213 206 207 203 214 198 202 207 201 211 219 210 204 206 211 226 229 223
268 263 247 242 241 225 231 219 219 220 221 224 235 224 216 229 221 208 218 213 217 221 215 230 192 205 209 203 197 194 195 178 197 199 201 212 211 206 202 206 217 227 218 213
309 271 258 244 230 223 231 216 216 220 228 223 215 230 222 227 230 206 213 216 217 215 215 223 202 206 212 201 200 200 196 196 191 199 203 208 204 204 200 207 211 203 199 198
297 306 272 275 242 228 213 211 216 215 240 204 217 227 207 216 223 211 207 211 204 213 220 206 199 205 209 202 200 202 198 201 196 199 202 203 203 199 199 203 200 194 189 191
324 291 291 308 214 201 190 211 235 217 246 203 223 219 216 228 217 191 202 202 205 214 219 222 198 213 206 203 204 202 196 203 197 205 202 198 200 198 198 201 198 199 198 199
332 308 292 251 229 197 185 211 221 235 225 220 234 105 51 205 215 191 198 199 200 219 213 214 217 222 214 206 206 204 205 208 200 204 201 197 199 200 200 204 204 207 207 212
332 323 311 274 253 208 220 208 217 229 245 268 276 27 77 123 154 177 187 195 200 214 223 228 229 236 220 210 207 203 213 213 204 207 203 199 203 203 205 208 212 215 216 220
334 297 286 295 320 316 213 229 220 220 227 243 278 162 32 103 148 162 174 197 203 213 225 229 240 207 207 204 201 203 207 208 206 208 206 205 209 208 212 214 216 220 223 225
333 304 308 307 300 26 86 35 290 216 281 225 87 94 30 81 163 170 165 165 204 212 219 228 226 201 203 202 198 200 206 200 206 202 211 211 212 214 218 220 220 223 226 229
350 293 327 348 90 93 64 57 95 102 65 60 81 53 21 310 167 180 173 154 171 188 227 222 206 206 204 204 200 201 204 206 204 203 211 214 217 218 223 225 224 227 229 233
335 329 338 72 136 104 49 37 68 78 68 66 46 33 41 29 190 134 174 176 190 187 183 205 221 203 198 201 202 208 209 205 202 210 213 218 218 227 228 229 228 229 232 237
340 340 355 348 68 61 17 43 62 57 77 95 98 80 65 349 17 352 166 172 201 204 185 180 186 213 200 202 205 211 206 207 206 211 217 221 227 232 237 233 233 231 234 239
57 50 28 54 75 103 22 357 15 63 51 55 82 100 74 97 341 73 198 206 196 233 221 217 163 181 194 200 202 211 209 208 210 214 220 223 229 237 234 239 235 232 233 238
49 60 70 58 68 35 351 18 103 68 35 38 39 52 72 92 69 75 198 208 206 195 191 190 199 196 208 203 202 203 207 212 214 219 222 218 232 234 242 240 235 233 234 238
37 51 49 54 62 25 22 50 56 54 353 21 32 28 59 50 52 57 71 93 208 204 198 192 198 210 208 217 214 209 222 218 215 220 223 224 233 231 234 238 235 232 232 236
45 43 35 42 47 20 18 57 58 42 23 27 36 41 53 60 70 64 72 71 86 137 194 205 205 214 224 231 212 218 224 213 214 219 222 227 228 230 230 229 230 228 230 237
47 56 63 69 66 50 44 53 58 53 48 46 48 51 59 53 73 103 72 84 72 90 98 147 176 172 218 234 249 236 221 213 224 228 216 225 223 220 222 220 220 224 228 232
47 67 70 68 40 50 54 60 63 64 61 59 59 59 70 79 77 84 232 203 1 89 118 113 108 150 133 176 168 178 210 235 237 227 217 221 220 220 219 211 215 219 223 229
51 63 58 60 56 47 48 52 55 60 64 64 63 65 66 69 74 92 103 121 277 232 161 134 126 146 165 106 32 42 347 200 212 227 226 225 224 220 218 222 228 232 233 236
54 56 62 59 51 52 45 44 47 48 50 49 52 49 55 65 64 58 78 88 106 157 219 207 179 199 210 266 278 313 301 286 266 218 217 221 233 216 223 225 233 228 243 242